Other Public Products
Issued by NWS Charleston, SC

Current Version | Previous Version | Text Only | Print | Product List | Glossary Off
Versions: 1 2 3 4 5 6 7 8 9 10 11 12 13 14 15 16 17 18 19 20 21 22 23 24 25 26 27 28 29 30 31 32 33 34 35 36 37 38 39 40 41 42 43 44 45 46 47 48 49 50

000
FPUS82 KCHS 241912
OPUCHS

TEST...KCHS/KSAV Gateway Observations...TEST
National Weather Service Charleston SC
300 PM EDT THU MAY 24 2018

NOTE: "fair" indicates few or no clouds below 12,000 feet with no
significant weather and/or obstructions to visibility.

SCZ050-WAZ558-NCZ071-TXZ119-213-PAZ071-DCZ001-FLZ074-172-MI076-
NYZ176-178-MAZ016-IL014-TNZ027-NJZ106-GAZ044-MD014-242000-

...Gateway Observations for Charleston International...

CITY           SKY/WX    TMP DP  RH WIND       PRES   REMARKS
Chas Airport   LGT RAIN  75  72  90 NE5       30.08F
Seattle        CLOUDY    60  51  72 SW5       30.09R
Charlotte      PTSUNNY   77  70  79 NE10      30.14F
Dallas DFW     PTSUNNY   85  66  53 S9        30.04F
Dallas Love    PTSUNNY   87  65  47 S10       30.05F
Philladelphia  FAIR      81  42  25 S6        30.13F
Wash National  FAIR      85  44  23 CALM      30.16F
Baltimore      FAIR      84  45  25 NE5       30.14F
Miami          PTSUNNY   84  73  69 E14       30.04F HX  90
Detroit        PTSUNNY   82  51  34 S10       30.18F
Newark         FAIR      83  39  21 CALM      30.10F
Laguardia      FAIR      82  37  20 NW3       30.10S
J F K          FAIR      82  37  20 VRB3      30.11F
Boston Logan   FAIR      61  52  72 E15       30.10F
Ft. Lauderdale NOT AVBL
Chicago O`Hare PTSUNNY   84  55  36 VRB6      30.11F
Chicago Midway FAIR      85  54  34 SE8       30.11F
Houston Bush   PTSUNNY   89  72  56 E7        30.03F HX  96
Houston Hobby  FAIR      88  73  61 E13       30.03F HX  95
Nashville      PTSUNNY   89  58  34 N5        30.09F
Atlanta        PTSUNNY   84  68  58 E5        30.09F

$$

GAZ044-118-TXZ119-213-NCZ071-DCZ001-MDZ014-506-PAZ021-071-NJZ106-
NYZ176-178-MAZ106-OHZ011-021-055-MIZ076-KYZ091-ILZ014-INZ047-
MNZ060-ONZ431-242000-

...Gateway Observations for Savannah International...

CITY           SKY/WX    TMP DP  RH WIND       PRES   REMARKS
Savannah Arpt  CLOUDY    81  69  67 E17       30.04F
Atlanta        PTSUNNY   84  68  58 E5        30.09F
Charlotte      PTSUNNY   77  70  79 NE10      30.14F
Dallas DFW     PTSUNNY   85  66  53 S9        30.04F
Houston Bush   PTSUNNY   89  72  56 E7        30.03F HX  96
Wash National  FAIR      85  44  23 CALM      30.16F
Wash Dulles    FAIR      82  50  32 CALM      30.17F
Baltimore      FAIR      84  45  25 NE5       30.14F
Philadelphia   FAIR      81  42  25 S6        30.13F
Newark         FAIR      83  39  21 CALM      30.10F
Laguardia      FAIR      82  37  20 NW3       30.10S
J F K          FAIR      82  37  20 VRB3      30.11F
Boston         FAIR      61  52  72 E15       30.10F
Pittsburg      FAIR      82  44  26 S5        30.19F
Akron          FAIR      80  46  30 CALM      30.20F
Cleveland      FAIR      80  52  37 N9        30.20F
Cincinnati     FAIR      80  56  43 NE6       30.15F
Columbus       FAIR      79  52  38 MISG      30.16F
Detroit        PTSUNNY   82  51  34 S10       30.18F
Chicago O`Hare PTSUNNY   84  55  36 VRB6      30.11F
Minneapolis    FAIR      90  60  36 S13G31    29.94F
Indianapolis   FAIR      81  52  36 VRB7      30.15F
Toronto Canada MOSUNNY   79  55  44 SE9       30.10F

$$




USA.gov is the U.S. government's official web portal to all federal, state and local government web resources and services.